Location: La Fredeussais
(48.1780°N, 1.3980°W)
Time: 09:25:46
(UTC+00:00)

Cosmos 1943 Rocket - Pass Details

Date: 09 May 2021
Orbit: 813 x 842 km, 71.0° (Epoch: 12 June)

Event Time Altitude Azimuth Distance (km) Brightness Sun altitude
Exits shadow 22:52:39 42° 121° (ESE) 1,179 2.6 -22.4°
Maximum altitude 22:53:07 43° 108° (ESE) 1,164 2.6 -22.4°
Drops below altitude 10° 22:58:22 10° 39° (NE) 2,447 5.0 -22.7°
Sets 23:00:54 0° 33° (NNE) 3,380 5.9 -22.8°
